Dewpoint
53 53 54 54 54 53 53 53 52 51 51 49 48 49 44 44 34 39 45 36 29 24 23 35 29 21 22 23 18 19 19 20 21 22 24 20 21 19 19 20 23 25 25 24 23 24 24 25 24 28 27 26 25 27 26 27 29 27 28 28 25 34 25 18 20 25 25 23 25 27 21 20 18 17 15 14 13 14 16 17 22 27 23 24 27 34 37
53 54 54 54 54 53 53 53 52 52 51 50 49 46 44 44 45 41 39 36 30 25 25 24 23 23 22 19 18 20 20 21 22 23 24 25 21 19 20 20 24 27 27 27 27 28 25 26 27 26 30 25 27 28 27 28 30 31 30 28 24 20 25 20 20 20 20 19 25 23 23 21 19 16 16 16 15 15 16 22 30 30 25 24 27 29 31
53 54 54 54 54 53 53 53 52 52 52 51 46 43 44 44 44 47 44 36 28 25 27 27 23 24 22 21 21 20 20 23 23 24 24 24 22 22 20 25 25 24 28 27 27 27 25 27 28 29 31 30 31 26 29 30 31 33 34 39 33 23 26 24 19 19 15 15 18 19 19 20 22 19 16 16 14 15 15 15 23 17 24 28 29 25 27
53 54 54 54 53 53 53 53 52 52 52 51 47 46 41 38 30 33 33 33 30 29 32 28 27 27 27 24 24 24 24 24 26 25 25 27 24 24 30 26 25 27 27 28 27 27 29 27 28 31 28 28 28 28 30 33 32 36 37 40 33 26 30 26 24 23 22 24 25 27 29 23 18 18 17 16 15 16 19 24 24 16 22 22 28 26 27
53 53 54 54 53 53 53 52 52 52 52 52 47 45 42 41 35 34 33 35 30 29 29 29 29 29 31 26 27 25 25 27 27 28 26 28 28 24 24 28 27 28 29 29 29 31 29 31 30 29 29 31 30 31 32 33 39 37 37 43 33 32 24 26 28 27 26 27 27 24 26 21 20 20 20 20 19 19 19 16 17 24 21 23 33 33 27
53 53 54 54 53 53 53 52 52 52 51 51 47 41 42 33 36 39 40 28 28 29 27 30 30 30 27 28 30 28 26 26 28 27 29 33 30 27 24 27 32 31 29 30 28 31 30 30 28 31 29 32 28 27 30 28 37 38 31 38 31 27 23 26 26 26 26 24 26 25 24 23 23 23 22 22 22 20 17 22 25 24 21 16 24 29 26
52 53 54 54 54 54 53 53 52 51 50 50 45 42 43 42 42 41 44 30 32 32 33 32 30 33 35 37 29 27 27 27 28 28 27 27 28 30 25 27 31 32 34 31 28 29 26 26 31 28 27 29 28 26 29 30 29 30 33 34 36 27 25 29 26 27 26 25 26 26 25 24 24 24 23 23 22 19 21 21 21 28 27 27 25 31 31
52 53 54 54 54 54 54 53 52 51 50 49 46 45 42 42 40 38 45 36 34 32 31 33 30 28 36 31 30 30 31 30 30 32 28 27 26 33 25 28 32 34 34 34 28 29 30 29 28 32 29 28 28 26 27 24 27 32 30 33 32 24 27 32 27 25 26 27 30 27 27 26 24 23 22 22 20 22 24 24 28 38 33 36 39 30 34
52 53 53 54 54 54 54 53 52 51 50 47 46 45 46 45 45 44 39 32 37 41 34 31 32 30 31 29 32 35 30 30 32 30 35 28 27 28 25 27 31 34 33 33 31 33 34 33 31 32 29 25 29 26 29 28 28 32 30 33 33 29 26 32 29 23 23 27 27 28 26 24 23 20 21 22 21 22 21 25 29 39 40 41 34 31 39
52 53 53 54 54 54 54 54 53 51 50 47 44 45 47 46 47 47 40 31 40 31 32 32 31 28 31 36 33 34 31 33 35 26 31 36 32 30 29 32 27 29 29 29 30 32 29 29 27 29 27 27 29 28 29 28 28 29 29 32 29 30 28 25 26 22 23 26 30 28 24 15 15 24 24 29 27 29 26 28 40 44 44 41 36 39 45
52 53 53 54 54 54 54 54 54 51 50 48 47 45 46 45 44 44 36 31 32 33 32 31 32 32 35 36 34 34 35 35 34 27 25 32 28 34 31 29 29 27 29 32 29 29 29 29 29 30 30 30 29 30 33 33 36 34 30 31 32 33 30 26 30 22 23 26 28 28 16 7 14 27 27 27 27 29 32 37 43 43 43 44 44 43 44
52 52 53 53 54 54 55 54 54 52 50 49 47 46 47 47 43 40 35 32 31 35 32 30 31 33 34 34 35 33 33 33 34 36 31 32 31 32 34 36 35 30 33 32 35 35 33 36 36 37 38 36 34 33 33 33 34 40 35 32 31 36 31 29 29 24 23 26 26 21 13 12 29 28 28 29 33 41 42 44 43 43 43 43 43 43 43
52 52 53 53 53 54 54 54 54 54 52 49 47 47 49 49 45 41 38 35 32 34 31 32 36 35 34 34 34 36 38 38 37 41 35 37 34 34 35 36 36 35 37 34 35 37 33 32 34 36 35 37 37 35 34 35 34 35 36 37 32 30 29 29 29 27 27 24 20 9 13 23 31 33 40 42 39 39 40 38 42 43 42 44 43 43 43
52 52 52 53 53 53 54 54 54 54 52 50 49 48 49 49 46 42 38 37 37 39 35 34 35 36 36 35 34 36 38 37 37 38 36 39 36 37 38 41 38 38 38 38 38 34 31 31 27 28 30 30 30 30 34 37 36 34 34 36 39 35 33 29 26 28 21 23 20 20 27 26 29 35 39 39 37 38 37 32 36 43 42 43 43 43 43
52 52 52 53 53 53 54 54 54 54 53 51 48 48 49 50 47 44 44 39 36 40 35 31 32 36 38 37 37 35 34 36 35 35 39 41 38 39 38 40 39 38 37 35 34 34 30 28 25 24 23 20 19 21 31 30 35 37 36 37 37 34 29 30 26 27 28 23 21 18 20 16 23 38 41 41 41 41 42 39 37 43 42 43 43 43 42
52 52 52 53 53 53 53 54 54 54 54 51 49 47 48 50 49 47 42 39 35 29 31 37 38 38 34 34 38 35 32 34 34 35 36 37 40 40 41 42 42 41 40 38 36 33 31 29 28 19 18 20 23 20 20 30 29 34 36 36 37 37 36 33 27 28 27 25 21 16 14 20 28 34 38 40 40 41 42 38 33 42 41 42 43 43 43
51 52 52 52 53 53 53 53 54 54 54 52 48 47 48 50 49 46 44 41 38 31 34 41 42 41 35 34 36 34 36 34 35 31 32 34 37 41 43 44 44 40 41 37 35 34 31 29 26 18 19 25 22 19 22 22 26 27 31 32 32 34 32 30 28 28 30 26 23 20 23 23 32 37 39 38 39 43 34 24 27 40 41 42 43 43 43
51 52 52 52 52 53 53 53 53 54 54 52 48 47 48 50 50 47 45 40 38 39 40 46 38 35 33 35 35 39 39 38 38 37 35 37 39 39 41 42 38 40 41 35 37 29 28 27 25 24 21 28 27 23 18 22 23 23 23 28 26 28 28 28 28 30 31 32 28 29 30 35 38 38 39 38 41 36 25 22 33 41 42 43 44 43 43
51 52 52 52 52 52 52 53 53 53 54 53 49 49 48 49 51 47 44 43 38 34 39 47 47 40 41 41 39 41 39 36 38 33 33 33 36 42 40 40 41 34 38 36 32 29 27 28 32 24 22 28 31 22 24 22 20 26 28 24 22 23 27 31 29 26 26 28 28 28 29 35 38 40 40 41 35 25 24 36 40 41 42 44 44 43 43
51 51 52 52 52 52 52 52 53 53 53 53 49 46 49 50 51 48 44 41 39 39 43 45 46 44 46 42 40 37 38 37 37 35 34 31 37 40 36 34 37 38 36 35 31 33 28 28 28 31 24 22 27 29 24 21 28 26 25 26 22 24 23 20 23 27 29 30 28 26 20 33 40 36 34 40 31 32 37 41 42 44 43 42 42 42 41
51 51 51 52 52 52 52 52 52 53 53 53 51 46 48 50 51 51 48 43 39 37 36 42 47 45 46 45 44 41 40 36 38 36 37 36 40 36 27 30 34 35 33 32 29 30 31 29 30 28 30 28 29 29 22 19 24 31 30 29 27 31 21 18 21 29 22 24 24 24 30 35 41 34 28 34 41 41 42 41 40 40 41 41 41 41 41
51 51 51 51 52 52 52 52 52 52 53 53 51 45 45 48 51 52 53 47 42 40 38 42 47 46 46 46 46 46 44 43 41 40 39 38 40 37 36 37 37 36 37 37 33 33 33 32 33 30 28 28 32 25 25 23 20 22 35 29 22 32 27 25 20 27 25 23 28 32 36 38 40 38 36 38 40 40 42 41 40 39 39 40 40 40 40
51 51 51 51 51 52 52 52 52 52 52 53 51 46 46 48 50 52 49 45 45 47 50 48 48 49 50 50 49 48 47 47 47 44 41 39 37 39 39 38 38 41 41 39 35 33 33 33 31 31 30 30 31 26 27 26 19 26 27 33 28 32 33 33 30 29 33 34 32 33 34 36 37 41 41 37 37 41 41 39 38 39 39 40 39 39 40
51 51 51 51 51 51 52 52 52 52 52 52 52 47 46 47 49 50 48 46 43 43 42 44 42 41 44 46 47 48 50 49 49 47 45 41 36 37 40 41 43 42 40 41 40 37 36 34 34 34 29 32 32 27 24 24 28 28 28 27 30 33 35 32 28 32 26 24 33 32 31 33 37 37 37 39 41 40 40 39 38 39 39 40 40 40 40
50 51 51 51 51 51 51 52 52 52 52 52 52 52 50 48 47 50 46 43 43 38 37 42 43 44 45 46 46 45 44 46 50 47 45 42 39 38 38 41 43 40 40 41 43 40 37 34 35 33 29 34 33 28 31 27 28 31 26 28 28 29 35 31 32 30 27 27 31 34 37 36 37 36 34 36 37 37 38 39 40 40 41 41 40 41 41
50 50 51 51 51 51 51 51 51 52 53 53 52 50 48 47 48 49 49 49 45 45 44 42 43 47 47 45 44 45 46 47 47 47 45 43 41 39 40 46 43 48 46 45 42 40 37 36 34 33 32 33 35 29 29 32 30 31 30 29 31 32 37 29 32 31 32 33 33 33 34 34 35 37 37 37 37 36 38 39 39 40 40 40 40 41 41
50 50 51 51 51 51 51 51 51 51 52 53 52 52 50 50 50 48 48 47 44 38 42 41 44 45 46 45 47 48 48 48 47 47 46 44 42 42 45 44 43 44 44 43 43 41 39 36 36 36 36 36 37 35 34 34 33 32 30 32 36 35 31 32 31 28 29 29 30 33 28 29 31 34 35 35 36 38 38 39 40 40 39 40 40 41 42
50 50 51 51 51 51 51 51 51 51 52 52 51 52 52 50 50 50 50 50 45 40 39 41 43 44 48 47 49 48 46 47 46 45 45 44 42 41 43 43 43 44 43 42 40 39 38 38 38 39 39 40 37 36 38 38 37 34 34 34 37 33 33 33 31 29 28 31 33 35 34 33 33 34 36 37 38 38 38 39 39 39 40 40 41 41 41
50 50 50 50 50 51 51 51 51 51 51 52 51 50 50 51 51 51 51 52 50 48 47 48 49 46 41 42 46 46 46 46 45 44 44 43 42 41 42 43 42 43 45 44 42 41 39 40 41 40 39 42 38 35 37 34 33 34 35 36 36 35 35 34 33 34 33 34 35 36 36 35 36 37 38 38 38 38 39 40 40 41 41 41 42 41 41
50 50 50 50 50 50 50 50 51 51 51 51 50 47 45 49 50 50 51 52 52 51 47 45 42 44 47 48 47 46 46 47 46 45 45 43 41 41 41 43 44 46 46 44 43 41 42 42 43 44 46 46 39 40 36 32 32 35 37 37 37 36 36 36 36 35 34 36 37 38 38 38 38 38 38 39 40 42 40 40 40 41 42 42 42 43 43
50 50 50 50 50 50 50 50 51 51 52 50 47 40 40 41 47 53 53 53 53 51 49 49 45 47 46 48 48 46 47 47 45 46 49 49 49 50 51 47 50 49 44 43 43 44 43 42 43 44 48 46 45 40 38 35 33 33 37 38 38 38 37 37 37 37 36 38 38 39 39 39 39 39 40 40 41 41 42 42 44 47 45 45 43 42 42
50 50 50 50 50 50 50 51 50 51 51 49 46 44 43 46 49 51 52 52 54 52 48 45 45 42 41 44 46 49 44 45 49 51 49 51 48 50 50 51 48 50 47 44 46 45 45 45 43 45 43 47 45 42 41 37 35 35 41 40 39 39 39 38 38 38 38 39 39 36 36 38 39 38 39 39 40 41 41 41 41 41 45 45 43 43 43
50 50 50 50 50 50 50 51 51 51 50 50 51 51 51 51 51 51 51 50 52 51 51 47 43 44 43 43 45 45 48 47 46 45 43 49 47 48 47 49 48 46 51 44 43 42 45 44 45 44 46 47 43 43 41 38 37 39 39 42 40 40 40 41 39 39 39 39 38 36 36 36 37 39 40 40 41 41 41 41 42 42 42 43 42 41 40
50 50 50 50 50 50 51 51 52 52 51 50 47 48 49 51 50 51 51 52 52 52 51 46 44 43 42 45 41 44 51 43 42 44 40 48 49 45 44 46 47 43 46 44 44 43 46 45 43 43 46 44 45 41 37 39 40 40 42 43 42 41 42 41 40 39 39 39 39 38 37 38 38 39 41 41 41 42 44 42 43 42 42 42 41 40 40
50 51 50 50 51 51 51 51 50 50 47 48 48 49 49 52 50 51 51 51 48 47 47 47 47 43 42 41 39 42 47 45 43 45 42 44 49 43 44 42 44 41 42 48 45 44 42 43 45 42 40 45 42 37 38 40 42 43 43 43 42 41 40 39 39 39 39 39 39 39 39 38 38 38 38 39 40 41 41 42 42 42 41 41 41 40 40
50 50 50 51 51 52 51 50 50 49 47 47 49 54 56 56 53 51 51 54 52 47 46 46 46 43 43 38 37 40 48 44 46 46 45 46 44 47 46 42 37 41 49 44 42 44 43 47 44 39 45 39 38 39 41 42 42 42 42 41 41 41 39 38 38 38 39 39 39 39 39 39 38 38 39 39 39 40 41 41 42 41 41 41 40 40 40
50 51 51 52 51 51 48 49 50 49 49 50 52 56 56 55 53 53 52 52 54 53 48 46 43 43 43 42 42 44 46 40 44 41 42 42 40 46 45 43 39 44 45 43 41 40 44 48 43 39 40 37 39 43 44 43 42 41 41 41 41 41 40 38 40 38 38 38 39 38 38 38 37 37 37 37 38 40 40 41 41 41 40 40 40 41 40
51 51 51 50 49 49 49 49 50 51 53 54 56 52 51 53 49 50 50 48 51 52 49 48 44 45 45 44 38 46 45 42 43 41 39 43 38 37 44 43 44 44 38 40 41 45 44 43 41 39 40 43 43 43 43 43 43 42 42 42 41 40 39 39 41 37 36 34 34 35 39 37 35 36 36 36 37 38 39 40 41 42 41 42 41 42 42
51 51 50 50 49 47 49 51 53 56 53 53 52 49 46 49 48 46 46 48 49 46 49 46 44 46 45 43 44 48 46 43 42 41 38 44 40 37 41 37 42 42 35 37 39 44 38 37 39 40 38 40 39 41 42 43 43 44 44 43 42 41 41 40 40 36 36 36 36 36 36 34 34 35 36 37 38 39 40 41 41 42 42 42 42 42 42
50 49 50 49 48 49 53 53 56 53 53 47 48 46 45 47 41 38 47 42 42 47 47 43 47 46 47 44 43 42 50 43 39 38 39 41 44 37 42 41 43 40 34 35 39 44 39 33 35 36 34 37 39 41 42 43 44 44 43 43 42 42 41 41 41 39 38 37 37 37 37 37 37 36 37 38 38 38 40 40 42 42 42 42 44 42 41
48 49 51 51 52 51 51 52 52 50 48 46 47 49 47 41 44 43 44 41 40 42 47 45 45 44 47 47 45 43 47 49 46 45 43 40 47 45 41 39 44 38 35 34 41 43 40 37 36 34 34 36 38 40 43 43 43 44 42 43 43 42 41 40 40 40 38 38 39 39 39 39 41 39 39 39 39 39 40 41 41 42 42 42 41 42 43
50 50 50 51 51 51 51 50 48 47 48 48 45 38 39 43 45 43 43 37 38 41 44 45 42 43 44 47 46 45 44 47 47 47 43 40 44 41 39 41 42 36 32 36 42 39 38 33 32 31 35 37 41 43 42 42 43 43 43 43 45 43 41 40 38 40 40 39 40 39 38 40 41 40 41 40 40 40 41 42 43 41 42 43 44 43 43
50 51 51 50 50 50 48 37 46 48 39 39 37 36 38 35 36 37 39 44 48 42 44 48 48 49 48 48 45 46 43 48 44 44 42 36 43 42 39 36 37 34 37 42 38 36 33 32 28 32 35 39 43 43 42 42 43 42 42 43 43 43 42 40 39 38 40 40 39 39 39 39 40 40 42 41 41 42 42 45 45 43 42 43 43 43 44
50 51 50 51 46 46 44 34 45 45 40 37 34 32 32 33 36 42 42 41 43 42 46 43 44 43 42 46 42 43 45 45 45 41 40 41 40 38 36 32 33 38 41 36 37 33 31 32 33 35 40 42 44 45 44 44 43 43 43 44 44 43 41 40 39 38 39 41 40 40 41 40 40 41 42 41 41 40 41 41 43 45 45 43 43 43 44
48 43 39 41 41 43 35 34 39 35 33 34 37 36 37 36 37 38 39 44 44 43 46 46 46 44 45 46 45 45 42 40 45 38 35 37 35 35 34 31 35 37 34 31 30 29 28 31 36 39 40 40 41 44 45 45 44 44 43 43 43 42 41 39 38 38 39 39 39 40 39 39 39 40 40 41 41 41 40 41 42 44 42 42 43 43 44
38 35 37 38 37 35 33 32 32 35 36 39 39 42 40 41 41 42 45 48 46 46 46 46 45 45 45 45 43 39 43 41 38 38 41 34 32 31 36 41 37 31 31 29 25 21 23 31 37 39 40 41 42 43 45 46 47 46 44 42 41 42 40 39 38 38 39 39 40 40 40 40 39 40 40 40 40 42 41 42 42 42 42 42 43 44 45
42 44 34 35 36 34 38 34 34 35 37 40 44 45 44 46 47 47 47 49 47 47 47 47 46 46 44 41 41 39 43 41 38 39 37 32 31 33 40 32 29 28 27 24 21 25 32 36 38 40 41 42 42 43 44 45 47 46 45 43 43 42 40 39 39 38 39 40 40 40 39 40 40 40 41 40 39 40 42 45 43 43 43 43 44 45 45
36 37 38 37 32 32 35 38 40 42 44 45 45 47 48 48 47 46 48 49 49 48 46 46 43 42 39 43 40 37 38 40 38 36 39 36 36 31 27 29 28 31 31 29 30 34 36 39 40 42 43 44 44 44 44 45 46 46 44 42 43 43 40 39 39 38 40 39 39 39 40 40 40 41 41 39 41 41 41 42 42 43 43 44 45 45 45
43 36 36 32 35 38 39 41 40 39 41 45 48 48 47 46 46 47 48 49 48 47 47 45 44 41 38 40 37 34 31 37 32 29 36 33 31 28 29 23 26 23 32 34 34 36 39 40 42 43 43 43 44 44 45 46 46 46 46 45 44 44 42 39 39 40 42 40 40 40 40 41 40 41 41 42 40 40 40 42 43 43 44 44 45 45 44
38 37 43 40 41 38 41 42 39 39 42 45 45 45 46 46 46 47 49 48 48 47 44 43 43 39 37 35 29 28 29 33 35 33 30 30 29 32 33 30 30 29 32 35 38 40 41 42 42 42 42 42 43 44 44 45 47 47 47 46 46 45 44 42 40 42 41 40 40 40 40 42 41 40 40 40 41 41 42 42 42 42 44 45 45 45 44
42 38 39 44 39 36 39 36 36 38 41 44 45 45 46 46 46 45 48 48 46 42 40 37 34 35 31 28 27 26 28 35 34 33 31 31 35 34 31 31 34 36 37 40 41 42 42 43 42 41 41 41 42 43 45 46 46 46 47 47 45 46 45 43 41 41 41 41 42 47 41 40 40 39 40 42 42 41 41 43 43 44 45 45 45 45 44
39 41 42 44 46 45 44 43 44 44 45 47 47 48 48 46 48 48 50 47 43 39 36 38 36 32 28 29 30 32 35 33 33 32 31 35 38 35 35 36 37 38 39 39 40 41 42 41 41 43 41 42 44 44 45 46 47 47 46 46 46 45 45 44 42 41 41 41 41 41 39 41 43 43 43 41 40 39 40 41 43 44 45 45 45 44 44